Redmond, OR

3:13 AM PST on November 12, 2019 (GMT -0800)
Roberts Field Airport

Weather History for KRDM - September, 2019

Change the Weather History Date:

Thursday, September 5, 2019

  Actual Average Record
Temperature  
Mean Temperature 73 °F 60 °F  
Max Temperature 89 °F 80 °F 99 °F (1998)
Min Temperature 57 °F 41 °F 29 °F (2010)
Degree Days  
Heating Degree Days 0 6  
Month to date heating degree days 0 26  
Since 1 July heating degree days 47 175  
Cooling Degree Days 8 1  
Month to date cooling degree days 28 5  
Year to date cooling degree days 284 211  
Growing Degree Days 22 (Base 50)    
Moisture  
Dew Point 52 °F    
Average Humidity 56    
Maximum Humidity 84    
Minimum Humidity 27    
Precipitation  
Precipitation 0.48 in 0.02 in 0.48 in (2019)
Month to date precipitation 0.48 0.07  
Year to date precipitation 7.94 5.80  
Sea Level Pressure  
Sea Level Pressure 30.03 in    
Wind  
Wind Speed 6 mph (NNW)    
Max Wind Speed 21 mph    
Max Gust Speed 27 mph    
Visibility 9 miles    
Events Rain , Thunderstorm    
T = Trace of Precipitation, MM = Missing Value Source: NWS Daily Summary

Daily Weather History Graph

Daily Weather History Graph

Search for Another Location

Airport or City:

Astronomy

Sep. 05, 2019 Rise Set
Actual Time 6:32 AM PDT 7:33 PM PDT
Civil Twilight 6:02 AM PDT 8:03 PM PDT
Nautical Twilight 5:26 AM PDT 8:38 PM PDT
Astronomical Twilight 4:49 AM PDT 9:15 PM PDT
Moon 2:00 PM PDT (9/5) 11:37 PM PDT (9/5)
Length of Visible Light 14h 00m
Length of Day
13h 01m
Waxing Crescent, 46% of the Moon is Illuminated
Sep 5
Waxing Crescent
Sep 5
First Quarter
Sep 13
Full
Sep 21
Last Quarter
Sep 28
New

Hourly Weather History & Observations

Time (PDT) Temp. Heat Index Dew Point Humidity Pressure Visibility Wind Dir Wind Speed Gust Speed Precip Events Conditions
12:56 AM 57.0 °F - 43.0 °F 59% 29.97 in 10.0 mi Calm Calm - N/A   Smoke
1:56 AM 57.0 °F - 43.0 °F 59% 29.98 in 10.0 mi Calm Calm - N/A   Smoke
2:56 AM 57.9 °F - 44.1 °F 60% 29.98 in 10.0 mi SSW 4.6 mph - N/A   Smoke
3:56 AM 59.0 °F - 45.0 °F 60% 29.98 in 10.0 mi SSE 3.5 mph - N/A   Smoke
4:56 AM 60.1 °F - 45.0 °F 57% 29.99 in 10.0 mi South 5.8 mph - N/A   Clear
5:56 AM 60.1 °F - 45.0 °F 57% 30.03 in 10.0 mi South 5.8 mph - N/A   Clear
6:56 AM 61.0 °F - 46.9 °F 60% 29.99 in 10.0 mi ESE 5.8 mph - 0.00 in   Partly Cloudy
7:56 AM 64.9 °F - 46.9 °F 52% 30.04 in 10.0 mi Calm Calm - N/A   Partly Cloudy
8:56 AM 69.1 °F - 48.9 °F 49% 30.04 in 10.0 mi East 4.6 mph - N/A   Partly Cloudy
9:56 AM 77.0 °F - 48.0 °F 36% 30.01 in 10.0 mi ESE 5.8 mph - N/A   Partly Cloudy
10:56 AM 82.0 °F - 48.9 °F 31% 29.99 in 10.0 mi Variable 4.6 mph - N/A   Clear
11:56 AM 84.9 °F - 48.9 °F 29% 29.98 in 10.0 mi NE 3.5 mph - N/A   Clear
12:54 PM 82.4 °F - 50.0 °F 32% 30.07 in 10.0 mi NNW 9.2 mph - N/A Thunderstorm Scattered Clouds
12:56 PM 82.0 °F - 50.0 °F 33% 30.00 in 10.0 mi NW 10.4 mph - N/A Thunderstorm Scattered Clouds
1:05 PM 82.0 °F - 48.9 °F 31% 30.09 in 10.0 mi WNW 8.1 mph - N/A Thunderstorm Thunderstorm
1:56 PM 82.0 °F 81.3 °F 54.0 °F 38% 29.98 in 10.0 mi NE 6.9 mph - 0.00 in   Mostly Cloudy
2:56 PM 88.0 °F - 51.1 °F 28% 29.95 in 10.0 mi NW 10.4 mph - 0.00 in   Mostly Cloudy
3:51 PM 82.4 °F - 48.2 °F 30% 30.02 in 10.0 mi North 6.9 mph - N/A Thunderstorm Overcast
3:56 PM 82.9 °F - 48.9 °F 31% 29.94 in 10.0 mi North 9.2 mph - N/A Thunderstorm Mostly Cloudy
4:28 PM 84.9 °F - 46.9 °F 27% 30.01 in 10.0 mi North 6.9 mph - N/A   Scattered Clouds
4:56 PM 84.0 °F - 46.9 °F 27% 29.94 in 10.0 mi NNW 3.5 mph - N/A   Scattered Clouds
5:48 PM 75.9 °F - 55.0 °F 48% 30.05 in 10.0 mi WNW 13.8 mph - N/A Thunderstorm Thunderstorm
5:56 PM 75.0 °F - 57.0 °F 53% 30.03 in 9.0 mi WSW 15.0 mph - 0.01 in Rain , Thunderstorm Light Thunderstorms and Rain
6:05 PM 68.0 °F - 60.1 °F 76% 30.10 in 1.8 mi WSW 8.1 mph 19.6 mph 0.10 in Rain , Thunderstorm Heavy Thunderstorms and Rain
6:24 PM 66.9 °F - 60.1 °F 79% 30.09 in 2.0 mi NW 5.8 mph - 0.22 in Rain , Thunderstorm Rain
6:33 PM 66.9 °F - 60.1 °F 79% 30.09 in 7.0 mi NW 13.8 mph - 0.22 in Rain , Thunderstorm Light Rain
6:46 PM 66.9 °F - 59.0 °F 76% 30.08 in 10.0 mi North 8.1 mph - 0.22 in   Mostly Cloudy
6:56 PM 66.9 °F - 60.1 °F 79% 30.04 in 10.0 mi North 4.6 mph - 0.22 in   Scattered Clouds
7:14 PM 66.0 °F - 60.1 °F 81% 30.11 in 10.0 mi NNW 4.6 mph - N/A Thunderstorm Mostly Cloudy
7:56 PM 64.0 °F - 59.0 °F 84% 30.12 in 8.0 mi SE 9.2 mph - 0.03 in Rain Light Rain
8:56 PM 64.0 °F - 59.0 °F 84% 30.11 in 10.0 mi WNW 6.9 mph - 0.19 in Rain Light Rain
9:56 PM 63.0 °F - 59.0 °F 87% 30.07 in 9.0 mi NNE 6.9 mph - 0.03 in Rain Light Rain
10:56 PM 62.1 °F - 57.9 °F 86% 30.07 in 10.0 mi SE 8.1 mph - 0.00 in   Clear
11:56 PM 62.1 °F - 57.9 °F 86% 30.06 in 10.0 mi South 6.9 mph - N/A   Partly Cloudy